| time (UTC) | temp F | wind direction | speed MPH | gust MPH | rain 1hr in | rain 24hr in | rain mn in | humidity % | barometer mb |
| 20260510174543 | 57 | 296 | 3.0 | 12.0 | 0.00 | 0.00 | 0.00 | 80 | 1020.7 |
| 20260510173041 | 57 | 288 | 3.0 | 9.0 | 0.00 | 0.00 | 0.00 | 81 | 1020.9 |
| 20260510171542 | 57 | 309 | 3.0 | 9.0 | 0.00 | 0.00 | 0.00 | 80 | 1020.6 |
| 20260510170048 | 57 | 296 | 3.0 | 9.0 | 0.00 | 0.00 | 0.00 | 79 | 1020.5 |
| 20260510164549 | 57 | 5 | 2.0 | 8.0 | 0.00 | 0.00 | 0.00 | 81 | 1020.7 |
| 20260510163037 | 57 | 292 | 2.0 | 7.0 | 0.00 | 0.00 | 0.00 | 81 | 1020.3 |
| 20260510161542 | 57 | 294 | 3.0 | 9.0 | 0.00 | 0.00 | 0.00 | 80 | 1020.3 |
| 20260510160042 | 56 | 268 | 3.0 | 8.0 | 0.00 | 0.00 | 0.00 | 81 | 1020.2 |
| 20260510154550 | 56 | 308 | 1.0 | 5.0 | 0.00 | 0.00 | 0.00 | 82 | 1019.9 |
| 20260510153041 | 56 | 246 | 1.0 | 4.0 | 0.00 | 0.00 | 0.00 | 83 | 1019.9 |
| 20260510151545 | 56 | 329 | 0.0 | 3.0 | 0.00 | 0.00 | 0.00 | 83 | 1019.6 |
| 20260510150043 | 55 | 0 | 0.0 | 2.0 | 0.00 | 0.00 | 0.00 | 88 | 1019.3 |
| 20260510144559 | 53 | 0 | 0.0 | 1.0 | 0.00 | 0.00 | 0.00 | 89 | 1019.1 |
| 20260510143054 | 53 | 0 | 0.0 | 2.0 | 0.00 | 0.00 | 0.00 | 89 | 1019.3 |
| 20260510141541 | 53 | 0 | 0.0 | 2.0 | 0.00 | 0.00 | 0.00 | 89 | 1018.8 |
| 20260510140041 | 53 | 355 | 0.0 | 2.0 | 0.00 | 0.00 | 0.00 | 88 | 1018.8 |
| 20260510134542 | 53 | 259 | 0.0 | 3.0 | 0.00 | 0.00 | 0.00 | 88 | 1019.1 |
| 20260510133040 | 53 | 0 | 0.0 | 1.0 | 0.00 | 0.00 | 0.00 | 88 | 1018.8 |
| 20260510131547 | 53 | 355 | 0.0 | 3.0 | 0.00 | 0.00 | 0.00 | 88 | 1018.4 |
| 20260510130041 | 53 | 0 | 0.0 | 0.0 | 0.00 | 0.00 | 0.00 | 87 | 1019.1 |
| 20260510124542 | 53 | 0 | 0.0 | 1.0 | 0.00 | 0.00 | 0.00 | 87 | 1018.6 |
| 20260510123043 | 53 | 0 | 0.0 | 2.0 | 0.00 | 0.00 | 0.00 | 86 | 1018.6 |
| 20260510121539 | 53 | 0 | 0.0 | 2.0 | 0.00 | 0.00 | 0.00 | 86 | 1018.7 |
| 20260510120042 | 54 | 5 | 1.0 | 5.0 | 0.00 | 0.00 | 0.00 | 85 | 1018.5 |
| 20260510114545 | 54 | 5 | 1.0 | 5.0 | 0.00 | 0.00 | 0.00 | 84 | 1018.7 |
| 20260510113045 | 54 | 0 | 2.0 | 6.0 | 0.00 | 0.00 | 0.00 | 85 | 1018.8 |
| 20260510111541 | 54 | 327 | 2.0 | 6.0 | 0.00 | 0.00 | 0.00 | 84 | 1018.9 |
| 20260510110041 | 54 | 315 | 3.0 | 7.0 | 0.00 | 0.00 | 0.00 | 85 | 1019.1 |
| 20260510104537 | 55 | 314 | 2.0 | 7.0 | 0.00 | 0.00 | 0.00 | 85 | 1018.9 |
| 20260510103037 | 55 | 260 | 1.0 | 4.0 | 0.00 | 0.00 | 0.00 | 86 | 1019.0 |
| 20260510101548 | 55 | 285 | 1.0 | 8.0 | 0.00 | 0.00 | 0.00 | 85 | 1018.5 |
| 20260510100041 | 55 | 302 | 3.0 | 9.0 | 0.00 | 0.00 | 0.00 | 88 | 1018.9 |
| 20260510094542 | 55 | 0 | 0.0 | 3.0 | 0.00 | 0.00 | 0.00 | 90 | 1018.5 |
| 20260510093045 | 55 | 0 | 0.0 | 3.0 | 0.00 | 0.00 | 0.00 | 90 | 1018.7 |
| 20260510091540 | 55 | 280 | 1.0 | 4.0 | 0.00 | 0.00 | 0.00 | 90 | 1018.7 |
| 20260510090039 | 55 | 0 | 0.0 | 3.0 | 0.00 | 0.00 | 0.00 | 90 | 1018.2 |
| 20260510084543 | 55 | 0 | 0.0 | 1.0 | 0.00 | 0.00 | 0.00 | 89 | 1018.3 |
| 20260510083042 | 55 | 0 | 0.0 | 2.0 | 0.00 | 0.00 | 0.00 | 89 | 1018.6 |
| 20260510081541 | 55 | 284 | 0.0 | 3.0 | 0.00 | 0.00 | 0.00 | 89 | 1018.6 |
| 20260510080048 | 55 | 0 | 0.0 | 4.0 | 0.00 | 0.00 | 0.00 | 89 | 1018.6 |
| 20260510074548 | 55 | 0 | 0.0 | 3.0 | 0.00 | 0.00 | 0.00 | 88 | 1018.5 |
| 20260510073042 | 55 | 298 | 0.0 | 4.0 | 0.00 | 0.00 | 0.00 | 88 | 1018.3 |
| 20260510071543 | 55 | 281 | 1.0 | 5.0 | 0.00 | 0.00 | 0.00 | 88 | 1018.2 |
| 20260510070048 | 55 | 288 | 3.0 | 9.0 | 0.00 | 0.00 | 0.00 | 89 | 1018.2 |
| 20260510064557 | 55 | 279 | 3.0 | 10.0 | 0.00 | 0.00 | 0.00 | 88 | 1018.3 |
| 20260510063041 | 55 | 288 | 2.0 | 8.0 | 0.00 | 0.00 | 0.00 | 89 | 1018.2 |
| 20260510061540 | 55 | 259 | 3.0 | 11.0 | 0.00 | 0.00 | 0.00 | 88 | 1018.4 |
| 20260510060038 | 55 | 269 | 3.0 | 8.0 | 0.00 | 0.00 | 0.00 | 88 | 1018.5 |
| 20260510054545 | 56 | 275 | 5.0 | 11.0 | 0.00 | 0.00 | 0.00 | 88 | 1018.4 |
| 20260510053046 | 56 | 283 | 3.0 | 11.0 | 0.00 | 0.00 | 0.00 | 89 | 1018.4 |
| 20260510051550 | 56 | 227 | 3.0 | 12.0 | 0.00 | 0.00 | 0.00 | 89 | 1018.4 |
| 20260510050042 | 56 | 275 | 5.0 | 9.0 | 0.00 | 0.00 | 0.00 | 89 | 1018.3 |
| 20260510044540 | 56 | 267 | 3.0 | 10.0 | 0.00 | 0.00 | 0.00 | 89 | 1018.1 |
| 20260510043044 | 56 | 269 | 4.0 | 10.0 | 0.00 | 0.00 | 0.00 | 90 | 1017.9 |
| 20260510041543 | 56 | 261 | 4.0 | 12.0 | 0.00 | 0.00 | 0.00 | 90 | 1018.0 |
| 20260510040047 | 56 | 300 | 3.0 | 11.0 | 0.00 | 0.00 | 0.00 | 90 | 1017.7 |
| 20260510034556 | 56 | 313 | 3.0 | 9.0 | 0.00 | 0.00 | 0.00 | 90 | 1017.5 |
| 20260510033045 | 56 | 286 | 3.0 | 9.0 | 0.00 | 0.00 | 0.00 | 90 | 1017.2 |
| 20260510031541 | 56 | 316 | 3.0 | 11.0 | 0.00 | 0.00 | 0.00 | 89 | 1016.8 |
| 20260510030037 | 57 | 299 | 3.0 | 9.0 | 0.00 | 0.00 | 0.00 | 88 | 1016.9 |
| 20260510024536 | 58 | 292 | 4.0 | 9.0 | 0.00 | 0.00 | 0.00 | 85 | 1017.0 |
| 20260510023042 | 59 | 281 | 6.0 | 11.0 | 0.00 | 0.00 | 0.00 | 83 | 1016.8 |
| 20260510021543 | 60 | 15 | 4.0 | 12.0 | 0.00 | 0.00 | 0.00 | 80 | 1016.8 |
| 20260510020041 | 61 | 294 | 3.0 | 13.0 | 0.00 | 0.00 | 0.00 | 80 | 1016.8 |
| 20260510014536 | 61 | 316 | 4.0 | 13.0 | 0.00 | 0.00 | 0.00 | 79 | 1016.7 |
| 20260510013043 | 62 | 327 | 3.0 | 12.0 | 0.00 | 0.00 | 0.00 | 78 | 1016.8 |
| 20260510011541 | 62 | 290 | 4.0 | 11.0 | 0.00 | 0.00 | 0.00 | 77 | 1017.0 |
| 20260510010045 | 62 | 265 | 4.0 | 12.0 | 0.00 | 0.00 | 0.00 | 76 | 1017.0 |
| 20260510004541 | 63 | 313 | 4.0 | 12.0 | 0.00 | 0.00 | 0.00 | 74 | 1017.0 |
| 20260510003055 | 64 | 260 | 5.0 | 14.0 | 0.00 | 0.00 | 0.00 | 71 | 1017.1 |
| 20260510001537 | 65 | 298 | 6.0 | 12.0 | 0.00 | 0.00 | 0.00 | 68 | 1016.9 |
| 20260510000040 | 64 | 329 | 6.0 | 15.0 | 0.00 | 0.00 | 0.00 | 71 | 1017.1 |
| 20260509234542 | 64 | 24 | 6.0 | 14.0 | 0.00 | 0.00 | 0.00 | 71 | 1017.1 |
| 20260509233041 | 64 | 315 | 6.0 | 14.0 | 0.00 | 0.00 | 0.00 | 72 | 1017.1 |
| 20260509231541 | 64 | 331 | 7.0 | 16.0 | 0.00 | 0.00 | 0.00 | 73 | 1017.2 |
| 20260509230041 | 65 | 352 | 7.0 | 15.0 | 0.00 | 0.00 | 0.00 | 69 | 1017.5 |
| 20260509224540 | 65 | 16 | 5.0 | 16.0 | 0.00 | 0.00 | 0.00 | 70 | 1017.5 |
| 20260509223035 | 68 | 352 | 6.0 | 15.0 | 0.00 | 0.00 | 0.00 | 66 | 1017.6 |
| 20260509221546 | 68 | 360 | 5.0 | 10.0 | 0.00 | 0.00 | 0.00 | 66 | 1017.6 |
| 20260509220044 | 67 | 11 | 3.0 | 10.0 | 0.00 | 0.00 | 0.00 | 67 | 1017.6 |
| 20260509214556 | 68 | 294 | 4.0 | 12.0 | 0.00 | 0.00 | 0.00 | 66 | 1018.0 |
| 20260509213041 | 69 | 287 | 3.0 | 14.0 | 0.00 | 0.00 | 0.00 | 65 | 1018.3 |
| 20260509211546 | 69 | 242 | 6.0 | 12.0 | 0.00 | 0.00 | 0.00 | 64 | 1018.6 |
| 20260509210046 | 68 | 355 | 4.0 | 11.0 | 0.00 | 0.00 | 0.00 | 67 | 1018.5 |
| 20260509204545 | 67 | 267 | 6.0 | 14.0 | 0.00 | 0.00 | 0.00 | 68 | 1018.7 |
| 20260509203043 | 67 | 291 | 4.0 | 13.0 | 0.00 | 0.00 | 0.00 | 70 | 1019.1 |
| 20260509201543 | 67 | 310 | 4.0 | 13.0 | 0.00 | 0.00 | 0.00 | 68 | 1019.2 |
| 20260509200046 | 66 | 355 | 3.0 | 13.0 | 0.00 | 0.00 | 0.00 | 71 | 1019.2 |
| 20260509194550 | 68 | 267 | 6.0 | 13.0 | 0.00 | 0.00 | 0.00 | 67 | 1019.4 |
| 20260509193039 | 69 | 333 | 4.0 | 9.0 | 0.00 | 0.00 | 0.00 | 66 | 1019.6 |
| 20260509191542 | 68 | 5 | 3.0 | 10.0 | 0.00 | 0.00 | 0.00 | 68 | 1019.5 |
| 20260509190042 | 67 | 302 | 4.0 | 10.0 | 0.00 | 0.00 | 0.00 | 69 | 1019.7 |
| 20260509184541 | 66 | 348 | 3.0 | 9.0 | 0.00 | 0.00 | 0.00 | 71 | 1019.8 |
| 20260509183058 | 64 | 355 | 4.0 | 9.0 | 0.00 | 0.00 | 0.00 | 74 | 1019.9 |
| 20260509181541 | 63 | 305 | 2.0 | 8.0 | 0.00 | 0.00 | 0.00 | 75 | 1019.9 |
| 20260509180040 | 62 | 331 | 2.0 | 11.0 | 0.00 | 0.00 | 0.00 | 77 | 1020.0 |